weather.gov     
National Weather Service

Regional Weather Roundup
NWS Homepage
This page is being discontinued on March 12, 2014.
The same data is available at this site. Please update your bookmarks.
Thank you, and we apologize for the inconvenience.
Please send an email to SR-SRH.Webmaster@noaa.gov with any concerns.


Current Version
Previous Version:    01  02  03  04  05  06  07  08  09  10  11  12  13  14  15  16  17  18  19  20  21  22  23  24  25  26  27  
[Printable]
065
ASUS45 KCYS 250910
RWRWY

WYOMING REGIONAL WEATHER ROUNDUP
NATIONAL WEATHER SERVICE CHEYENNE WY
300 AM MDT SAT OCT 25 2014

NOTE:  "FAIR" INDICATES FEW OR NO CLOUDS BELOW 12,000 FEET
WITH NO SIGNIFICANT WEATHER AND/OR OBSTRUCTIONS TO VISIBILITY.

WYZ001-251000-
YELLOWSTONE NATIONAL PARK

CITY           SKY/WX    TMP DP  RH WIND       PRES   REMARKS
LK YELLOWSTONE   N/A     27  23  85 NW3       30.28
W YELLOWSTONE  NOT AVBL

$$
WYZ002>013-054>058-071-098>099-251000-
NORTHERN WYOMING

CITY           SKY/WX    TMP DP  RH WIND       PRES   REMARKS
JACKSON        CLEAR     28  27  93 N6        30.24R WCI  22
CODY           PTCLDY    36  28  75 CALM      30.11
GREYBULL       PTCLDY    39  31  72 SE3       30.11R
WORLAND        PTCLDY    35  30  82 CALM      30.11S
SHERIDAN       CLEAR     33  28  81 N6        30.12S WCI  28
BUFFALO        CLEAR     40  30  67 SW5       30.16S
GILLETTE       PTCLDY    31  28  89 S6        30.14S WCI  25
HULETT         FAIR      46  30  53 CALM      30.16
NEWCASTLE      FAIR      37  32  81 CALM      30.17

$$
WYZ014>020-022>026-101>103-251000-
CENTRAL WYOMING

CITY           SKY/WX    TMP DP  RH WIND       PRES   REMARKS
BIG PINEY      PTCLDY    28  19  69 E3        30.30S
PINEDALE       MOSUNNY   27  23  86 SW5       30.30  WCI  21
DUBOIS         FAIR      37  18  44 NW13      30.23S WCI  29
LANDER         PTCLDY    46  21  37 E5        30.17R
RIVERTON       PTCLDY    47  20  34 CALM      30.17S
CASPER         CLEAR     39  29  67 NW9       30.17F WCI  33
DOUGLAS        CLEAR     38  21  50 CALM      30.18R

$$
WYZ021-027>030-104>119-251000-
SOUTHERN WYOMING

CITY           SKY/WX    TMP DP  RH WIND       PRES   REMARKS
EVANSTON       CLEAR     49  20  31 SE3       30.27S
KEMMERER       MOSUNNY   36  27  69 N8        30.28S WCI  29
FORT BRIDGER   FAIR      47  19  32 CALM      30.30S
ROCK SPRINGS   MOCLDY    45  26  47 E3        30.27F
DIXON          FAIR      33  29  83 CALM      30.33S
RAWLINS        CLEAR     45  25  45 S3        30.29S
SARATOGA       FAIR      39  27  60 SE3       30.32S
LARAMIE        CLEAR     39  21  48 SE8       30.32R WCI  33
CHEYENNE       CLEAR     50  22  33 NW7       30.25S
TORRINGTON     CLEAR     43  30  60 SW3       30.14S
PINE BLUFFS    FAIR      36  32  87 W6        30.21F WCI  31

$$




U.S. Dept. of Commerce
NOAA National Weather Service
1325 East West Highway
Silver Spring, MD 20910
E-mail: w-nws.webmaster@noaa.gov
Page last modified: May 16, 2007
NATIONAL WEATHER SERVICE: for Safety, for Work, for Fun - FOR LIFE